Regional Weather Roundup
Issued by NWS Cleveland, OH

Home | Current Version | Previous Version | Text Only | Print | Product List | Glossary Off
Versions: 1 2 3 4 5 6 7 8 9 10 11 12 13 14 15 16 17 18 19 20 21 22 23 24 25 26 27 28 29 30 31 32 33 34 35 36 37 38 39 40 41 42 43 44 45 46 47 48 49 50

000
ASUS41 KCLE 261210
RWRCLE
OHIO REGIONAL WEATHER ROUNDUP
NATIONAL WEATHER SERVICE WILMINGTON, OH
800 AM EDT SAT MAY 26 2018

NOTE: "FAIR" INDICATES FEW OR NO CLOUDS BELOW 12,000 FEET WITH NO
SIGNIFICANT WEATHER AND/OR OBSTRUCTIONS TO VISIBILITY.

OHZ001>008-015>018-024>027-034-035-043-044-261300-
   NORTHWEST OHIO

CITY           SKY/WX    TMP DP  RH WIND       PRES   REMARKS
DEFIANCE       CLOUDY    67  63  87 S3        29.83R
FINDLAY        CLOUDY    71  62  73 SW6       29.83R
TOLEDO EXPRESS CLOUDY    68  63  84 SW6       29.82R
TOLEDO EXEC    PTSUNNY   70  60  70 SW6       29.82R
LIMA           FAIR      70  62  76 S3        29.85R
$$

OHZ009>014-019>023-028>033-038-089-261300-
   NORTHEAST OHIO

CITY           SKY/WX    TMP DP  RH WIND       PRES   REMARKS
CLE-HOPKINS    PTSUNNY   71  57  61 S8        29.85R
CLE-LAKEFRONT  FAIR      73  55  53 S10       29.82R
CUY CO. ARPT   PTSUNNY   73  59  60 SW9       29.84S
LORAIN-ELYRIA  FAIR      66  55  67 VRB3      29.84R
ASHTABULA      FAIR      64  59  83 S5        29.85R
AKRON-CANTON   PTSUNNY   69  59  70 S6        29.88R
WOOSTER        FAIR      66  59  78 CALM      29.88R
MANSFIELD      PTSUNNY   68  60  75 S6        29.87R
YOUNGSTOWN     PTSUNNY   69  59  70 SW6       29.87R
$$

OHZ042-051>053-060>062-070>072-077>081-261300-
  SOUTHWEST OHIO

CITY           SKY/WX    TMP DP  RH WIND       PRES   REMARKS
CINC-COVINGTON PTSUNNY   71  63  75 SW7       29.88R
CINC-LUNKEN    PTSUNNY   68  67  96 S3        29.88R
HAMILTON       FAIR      70  67  90 CALM      29.88R
DAYTON         PTSUNNY   71  63  75 S9        29.87S
WRIGHT-PAT AFB PTSUNNY   69  62  76 SE5       29.86S
DAYTON GENERAL FAIR      72  62  71 SW3       29.87R
WILMINGTON     PTSUNNY   69  66  90 SW3       29.88R
$$

OHZ036-037-039>041-045>050-054>059-063>069-073>076-082>088-261300-
  CENTRAL AND SOUTHEAST OHIO

CITY           SKY/WX    TMP DP  RH WIND       PRES   REMARKS
COLUMBUS       PTSUNNY   70  61  73 S3        29.87R
OSU AIRPORT    CLOUDY    69  61  75 S5        29.87R
BOLTON FIELD   PTSUNNY   68  63  83 SW3       29.87S
RICKENBACK AFB FAIR      66  63  90 MISG      29.87R
NEWARK         FAIR      66  62  87 CALM      29.87S
MARION         PTSUNNY   68  60  75 S6        29.86S
LANCASTER      PTSUNNY   70  66  87 CALM      29.88R
ZANESVILLE     FAIR      68  65  90 CALM      29.88R
NEW PHILLY     FAIR      67  64  90 SE6       29.88R
$$




USA.gov is the U.S. government's official web portal to all federal, state and local government web resources and services.